Highgate, VT

4:27 AM EST on January 21, 2018 (GMT -0500)
Franklin County State

Weather History for KFSO - September, 2013

Change the Weather History Date:

Sunday, September 22, 2013

  Actual Average (KPBG) Record (KPBG)
Temperature  
Mean Temperature 54 °F -  
Max Temperature 58 °F 66 °F 89 °F (1970)
Min Temperature 49 °F 49 °F 32 °F (1950)
Degree Days  
Heating Degree Days 12    
Growing Degree Days 4 (Base 50)    
Moisture  
Dew Point 46 °F    
Average Humidity 75    
Maximum Humidity 85    
Minimum Humidity 62    
Precipitation  
Precipitation 0.00 in - - ()
Sea Level Pressure  
Sea Level Pressure 29.71 in    
Wind  
Wind Speed 5 mph (West)    
Max Wind Speed 10 mph    
Max Gust Speed 21 mph    
Visibility 9 miles    
Events Rain    
Averages and records for this station are not official NWS values.
T = Trace of Precipitation, MM = Missing Value Source: NWS Daily Summary

Daily Weather History Graph

Daily Weather History Graph

Search for Another Location

Airport or City:

Trip Planner

Search our weather history database for the weather conditions in past years. The results will help you decide how hot, cold, wet, or windy it might be!

Date:

Astronomy

Sep. 22, 2013 Rise Set
Actual Time 6:39 AM EDT 6:49 PM EDT
Civil Twilight 6:10 AM EDT 7:18 PM EDT
Nautical Twilight 5:36 AM EDT 7:53 PM EDT
Astronomical Twilight 5:00 AM EDT 8:28 PM EDT
Moon 8:26 PM EDT (9/22) 10:07 AM EDT (9/22)
Length of Visible Light 13h 08m
Length of Day
12h 09m
Waning Gibbous, 89% of the Moon is Illuminated
Sep 22
Waning Gibbous
Sep 26
Last Quarter
Oct 4
New
Oct 11
First Quarter
Oct 18
Full

Hourly Weather History & Observations

Time (EDT) Temp. Dew Point Humidity Pressure Visibility Wind Dir Wind Speed Gust Speed Precip Events Conditions
12:15 AM - - N/A% 29.56 in 10.0 mi SSW 6.9 mph - N/A Rain Rain
12:35 AM - - N/A% 29.56 in 7.0 mi SW 6.9 mph 19.6 mph N/A Rain Rain
12:55 AM - - N/A% 29.57 in 10.0 mi SW 9.2 mph 19.6 mph N/A Rain Light Rain
1:15 AM - - N/A% 29.57 in 7.0 mi Calm Calm - N/A Rain Rain
1:35 AM - - N/A% 29.58 in 7.0 mi Calm Calm - N/A Rain Rain
1:55 AM - - N/A% 29.57 in 7.0 mi Calm Calm - N/A Rain Light Rain
2:15 AM - - N/A% 29.57 in 7.0 mi Calm Calm - N/A Rain Light Rain
2:35 AM - - N/A% 29.57 in 5.0 mi Calm Calm - N/A Rain Rain
2:55 AM - - N/A% 29.57 in 5.0 mi Calm Calm - N/A Rain Rain
3:15 AM - - N/A% 29.57 in 5.0 mi Calm Calm - N/A Rain Rain
3:35 AM - - N/A% 29.56 in 10.0 mi Calm Calm - N/A Rain Rain
3:55 AM - - N/A% 29.55 in 7.0 mi South 3.5 mph - N/A Rain Light Rain
4:15 AM - - N/A% 29.55 in 10.0 mi South 3.5 mph - N/A   Light Drizzle
4:35 AM - - N/A% 29.56 in 10.0 mi Calm Calm - N/A   Overcast
4:55 AM - - N/A% 29.56 in 5.0 mi South 3.5 mph - N/A   Drizzle
5:15 AM - - N/A% 29.56 in 10.0 mi South 4.6 mph - N/A   Overcast
5:35 AM - - N/A% 29.56 in 5.0 mi SW 4.6 mph - N/A Rain Heavy Rain
5:55 AM - - N/A% 29.56 in 10.0 mi SSW 5.8 mph - N/A   Overcast
6:15 AM - - N/A% 29.58 in 10.0 mi West 5.8 mph - N/A   Overcast
6:35 AM - - N/A% 29.58 in 10.0 mi West 4.6 mph - N/A   Overcast
6:55 AM - - N/A% 29.59 in 10.0 mi Calm Calm - N/A   Overcast
7:15 AM - - N/A% 29.59 in 10.0 mi SW 3.5 mph - N/A   Overcast
7:35 AM - - N/A% 29.60 in 10.0 mi SW 8.1 mph 17.3 mph N/A   Overcast
7:55 AM - - N/A% 29.61 in 10.0 mi SW 6.9 mph - N/A Rain Rain
8:15 AM - - N/A% 29.62 in 3.0 mi SSW 4.6 mph - N/A   Heavy Drizzle
8:35 AM - - N/A% 29.63 in 10.0 mi West 5.8 mph - N/A   Light Drizzle
8:55 AM 56.8 °F 52.3 °F 85% 29.64 in 10.0 mi West 6.9 mph - N/A   Overcast
9:15 AM 56.8 °F 52.0 °F 84% 29.66 in 10.0 mi West 4.6 mph - N/A   Overcast
9:35 AM 56.8 °F 52.2 °F 84% 29.66 in 10.0 mi West 4.6 mph - N/A   Overcast
9:55 AM 56.7 °F 51.3 °F 82% 29.67 in 10.0 mi West 4.6 mph - N/A   Overcast
10:15 AM 56.8 °F 50.4 °F 79% 29.68 in 10.0 mi West 8.1 mph 16.1 mph N/A   Overcast
10:35 AM 56.8 °F 49.6 °F 77% 29.69 in 10.0 mi West 5.8 mph - N/A   Overcast
10:55 AM 56.1 °F 49.3 °F 78% 29.69 in 10.0 mi West 8.1 mph - N/A   Overcast
11:15 AM 55.8 °F 48.7 °F 77% 29.70 in 10.0 mi West 9.2 mph 17.3 mph N/A   Overcast
11:35 AM 55.4 °F 48.2 °F 77% 29.71 in 10.0 mi West 8.1 mph - N/A   Overcast
11:55 AM 55.4 °F 47.8 °F 76% 29.71 in 10.0 mi WNW 6.9 mph 18.4 mph N/A   Overcast
12:15 PM 55.6 °F 47.5 °F 74% 29.72 in 10.0 mi WNW 5.8 mph - N/A   Overcast
12:35 PM 54.5 °F 46.4 °F 74% 29.73 in 10.0 mi West 8.1 mph 16.1 mph N/A   Overcast
12:55 PM 55.2 °F 46.8 °F 73% 29.73 in 10.0 mi West 5.8 mph - N/A   Overcast
1:15 PM 54.5 °F 46.2 °F 74% 29.74 in 10.0 mi WNW 5.8 mph - N/A   Overcast
1:35 PM 55.0 °F 46.2 °F 72% 29.74 in 10.0 mi West 4.6 mph - N/A   Overcast
1:55 PM 54.5 °F 46.4 °F 74% 29.75 in 10.0 mi West 3.5 mph - N/A   Light Drizzle
2:15 PM 56.8 °F 47.3 °F 70% 29.75 in 10.0 mi West 6.9 mph - N/A   Overcast
2:35 PM 55.2 °F 47.1 °F 74% 29.75 in 10.0 mi West 3.5 mph - N/A   Overcast
2:55 PM 56.8 °F 46.6 °F 69% 29.75 in 10.0 mi WNW 6.9 mph - N/A   Overcast
3:15 PM 54.7 °F 46.8 °F 75% 29.75 in 10.0 mi WNW 4.6 mph - N/A   Overcast
3:35 PM 58.6 °F 46.6 °F 64% 29.75 in 10.0 mi West 9.2 mph 16.1 mph N/A   Overcast
3:55 PM 56.8 °F 46.0 °F 67% 29.76 in 10.0 mi WNW 8.1 mph - N/A   Overcast
4:15 PM 56.8 °F 44.1 °F 62% 29.77 in 10.0 mi WNW 10.4 mph 20.7 mph N/A   Overcast
4:35 PM 54.5 °F 43.7 °F 67% 29.77 in 10.0 mi West 8.1 mph - N/A   Overcast
4:55 PM 54.5 °F 43.2 °F 66% 29.78 in 10.0 mi West 5.8 mph - N/A   Overcast
5:15 PM 54.5 °F 43.3 °F 66% 29.79 in 10.0 mi West 8.1 mph - N/A   Overcast
5:35 PM 54.5 °F 44.6 °F 69% 29.79 in 10.0 mi West 5.8 mph - N/A   Overcast
5:55 PM 54.5 °F 45.5 °F 72% 29.80 in 10.0 mi West 9.2 mph - N/A   Overcast
6:15 PM 54.5 °F 44.6 °F 69% 29.81 in 10.0 mi West 5.8 mph - N/A   Overcast
6:35 PM 54.5 °F 44.8 °F 70% 29.81 in 10.0 mi West 4.6 mph - N/A   Overcast
6:55 PM 52.9 °F 44.4 °F 73% 29.82 in 10.0 mi West 4.6 mph - N/A Rain Light Rain
7:15 PM 51.8 °F 44.6 °F 76% 29.83 in 10.0 mi West 4.6 mph - N/A   Overcast
7:35 PM 51.8 °F 45.1 °F 78% 29.83 in 10.0 mi West 6.9 mph - N/A   Overcast
7:55 PM 51.8 °F 44.4 °F 76% 29.84 in 10.0 mi West 6.9 mph - N/A   Overcast
8:15 PM 50.5 °F 42.4 °F 74% 29.85 in 10.0 mi WNW 4.6 mph - N/A   Overcast
8:35 PM 50.4 °F 43.3 °F 77% 29.86 in 10.0 mi West 4.6 mph - N/A   Light Drizzle
8:55 PM 49.3 °F 42.8 °F 78% 29.87 in 10.0 mi West 5.8 mph - N/A   Overcast
9:15 PM 49.3 °F 42.8 °F 78% 29.87 in 10.0 mi West 6.9 mph - N/A   Overcast
9:35 PM 49.3 °F 42.6 °F 78% 29.87 in 10.0 mi West 4.6 mph - N/A   Mostly Cloudy
9:55 PM 49.3 °F 42.6 °F 78% 29.88 in 10.0 mi West 5.8 mph - N/A   Mostly Cloudy
10:15 PM 49.3 °F 42.4 °F 77% 29.89 in 10.0 mi WNW 3.5 mph - N/A   Scattered Clouds
10:35 PM 49.3 °F 42.8 °F 78% 29.89 in 10.0 mi WNW 4.6 mph - N/A   Scattered Clouds
10:55 PM 49.3 °F 42.4 °F 77% 29.89 in 10.0 mi WNW 3.5 mph - N/A   Mostly Cloudy
11:15 PM 49.3 °F 42.8 °F 78% 29.90 in 10.0 mi NW 3.5 mph - N/A   Overcast
11:35 PM 49.3 °F 42.4 °F 77% 29.90 in 10.0 mi NW 5.8 mph - N/A   Overcast
11:55 PM 49.3 °F 42.4 °F 77% 29.90 in 10.0 mi WNW 4.6 mph - N/A   Overcast